DW8356 Weather Reports


Display with metric or nautical units.
time (UTC)temp
F
wind
direction
speed
MPH
gust
MPH
rain 1hr
in
rain 24hr
in
rain mn
in
humidity
%
barometer
mb
20260902164547 93 0 1.0 7.0 0.00 0.00 0.00 53 1016.7
20260902164024 92 173 2.0 7.0 0.00 0.00 0.00 53 1016.7
20260902163521 91 171 2.0 7.0 0.00 0.00 0.00 54 1016.7
20260902163043 91 90 1.0 11.0 0.00 0.00 0.00 56 1016.8
20260902162528 90 105 2.0 11.0 0.00 0.00 0.00 56 1016.9
20260902162026 91 130 3.0 7.0 0.00 0.00 0.00 57 1016.8
20260902161550 91 19 1.0 7.0 0.00 0.00 0.00 58 1016.8
20260902161023 90 340 2.0 7.0 0.00 0.00 0.00 58 1016.8
20260902160525 90 119 1.0 7.0 0.00 0.00 0.00 59 1016.9
20260902160052 90 189 2.0 7.0 0.00 0.00 0.00 59 1016.9
20260902155525 91 178 3.0 7.0 0.00 0.00 0.00 57 1017.0
20260902155026 91 0 0.0 6.0 0.00 0.00 0.00 57 1017.0
20260902154545 91 0 1.0 6.0 0.00 0.00 0.00 56 1016.9
20260902154025 90 152 2.0 5.0 0.00 0.00 0.00 58 1017.0
20260902153525 90 154 0.0 4.0 0.00 0.00 0.00 60 1017.0
20260902153044 88 146 1.0 4.0 0.00 0.00 0.00 62 1016.9
20260902152522 88 179 1.0 5.0 0.00 0.00 0.00 62 1016.8
20260902152023 88 225 1.0 5.0 0.00 0.00 0.00 62 1016.8
20260902151549 87 0 0.0 5.0 0.00 0.00 0.00 64 1016.8
20260902151026 87 100 0.0 5.0 0.00 0.00 0.00 64 1016.8
20260902150524 87 192 1.0 4.0 0.00 0.00 0.00 63 1016.7
20260902150046 87 142 1.0 4.0 0.00 0.00 0.00 64 1016.7
20260902145524 87 0 1.0 4.0 0.00 0.00 0.00 63 1016.6
20260902145025 86 166 0.0 4.0 0.00 0.00 0.00 65 1016.6
20260902144557 86 0 1.0 4.0 0.00 0.00 0.00 65 1016.6
20260902144024 85 139 1.0 4.0 0.00 0.00 0.00 65 1016.6
20260902143524 85 144 1.0 4.0 0.00 0.00 0.00 67 1016.6
20260902143041 84 30 1.0 4.0 0.00 0.00 0.00 68 1016.6
20260902142523 84 0 1.0 6.0 0.00 0.00 0.00 68 1016.6
20260902142025 84 172 1.0 6.0 0.00 0.00 0.00 69 1016.6
20260902141545 84 167 2.0 6.0 0.00 0.00 0.00 68 1016.6
20260902141026 84 166 1.0 7.0 0.00 0.00 0.00 69 1016.6
20260902140524 84 76 2.0 8.0 0.00 0.00 0.00 69 1016.6
20260902140043 83 156 2.0 8.0 0.00 0.00 0.00 69 1016.6
20260902135522 83 145 1.0 4.0 0.00 0.00 0.00 70 1016.6
20260902135021 83 147 1.0 5.0 0.00 0.00 0.00 70 1016.6
20260902134543 83 208 2.0 5.0 0.00 0.00 0.00 70 1016.6
20260902134022 82 183 2.0 6.0 0.00 0.00 0.00 71 1016.6
20260902133524 82 165 2.0 6.0 0.00 0.00 0.00 71 1016.6
20260902133046 81 165 0.0 9.0 0.00 0.00 0.00 72 1016.5
20260902132526 81 161 2.0 9.0 0.00 0.00 0.00 71 1016.6
20260902132024 81 137 1.0 8.0 0.00 0.00 0.00 71 1016.5
20260902131545 81 153 2.0 7.0 0.00 0.00 0.00 71 1016.5
20260902131022 81 0 1.0 5.0 0.00 0.00 0.00 72 1016.5
20260902130520 80 185 1.0 8.0 0.00 0.00 0.00 72 1016.4
20260902130043 80 152 1.0 8.0 0.00 0.00 0.00 72 1016.3
20260902125525 80 159 2.0 8.0 0.00 0.00 0.00 72 1016.3
20260902125023 79 0 1.0 4.0 0.00 0.00 0.00 73 1016.4
20260902124546 79 111 0.0 3.0 0.00 0.00 0.00 73 1016.3
20260902124024 79 152 1.0 4.0 0.00 0.00 0.00 73 1016.1
20260902123524 79 150 1.0 6.0 0.00 0.00 0.00 73 1016.2
20260902123051 79 157 0.0 6.0 0.00 0.00 0.00 73 1016.1
20260902122524 79 93 1.0 6.0 0.00 0.00 0.00 73 1016.1
20260902122019 79 55 1.0 6.0 0.00 0.00 0.00 73 1016.0
20260902121542 79 223 0.0 5.0 0.00 0.00 0.00 73 1015.9
20260902121026 79 0 1.0 5.0 0.00 0.00 0.00 73 1015.8
20260902120523 79 187 1.0 5.0 0.00 0.00 0.00 73 1015.9
20260902120048 79 160 1.0 5.0 0.00 0.00 0.00 73 1015.9
20260902115529 79 0 1.0 4.0 0.00 0.00 0.00 73 1015.9
20260902115025 79 170 1.0 4.0 0.00 0.00 0.00 73 1016.0
20260902114548 79 0 0.0 4.0 0.00 0.00 0.00 73 1016.0
20260902114028 79 134 1.0 4.0 0.00 0.00 0.00 73 1016.0
20260902113524 79 166 1.0 4.0 0.00 0.00 0.00 72 1016.0
20260902113050 79 174 1.0 4.0 0.00 0.00 0.00 72 1016.0
20260902112522 79 183 1.0 4.0 0.00 0.00 0.00 72 1016.0
20260902112023 79 0 0.0 5.0 0.00 0.00 0.00 72 1016.0
20260902111548 79 171 1.0 5.0 0.00 0.00 0.00 72 1016.0
20260902111024 79 164 0.0 3.0 0.00 0.00 0.00 72 1016.1
20260902110524 79 153 0.0 3.0 0.00 0.00 0.00 72 1016.1
20260902110045 79 157 0.0 2.0 0.00 0.00 0.00 72 1016.1
20260902105524 79 157 0.0 2.0 0.00 0.00 0.00 72 1016.1
20260902105027 80 0 0.0 2.0 0.00 0.00 0.00 72 1016.1
20260902104546 80 0 0.0 1.0 0.00 0.00 0.00 71 1015.9
20260902104026 80 0 0.0 1.0 0.00 0.00 0.00 71 1016.0
20260902103525 80 0 0.0 2.0 0.00 0.00 0.00 71 1016.0
20260902103042 80 156 0.0 2.0 0.00 0.00 0.00 71 1015.9
20260902102524 80 172 0.0 2.0 0.00 0.00 0.00 70 1015.9
20260902102026 80 0 0.0 3.0 0.00 0.00 0.00 70 1015.9
20260902101540 80 0 0.0 4.0 0.00 0.00 0.00 70 1015.9
20260902101025 80 0 0.0 4.0 0.00 0.00 0.00 70 1015.9
20260902100524 80 0 0.0 3.0 0.00 0.00 0.00 70 1015.8
20260902100046 80 186 0.0 4.0 0.00 0.00 0.00 70 1015.9
20260902095521 80 0 0.0 4.0 0.00 0.00 0.00 70 1015.9
20260902095024 80 0 0.0 3.0 0.00 0.00 0.00 70 1015.7
20260902094543 80 183 0.0 2.0 0.00 0.00 0.00 70 1015.7
20260902094024 80 158 0.0 2.0 0.00 0.00 0.00 70 1015.7
20260902093523 80 0 0.0 1.0 0.00 0.00 0.00 70 1015.6
20260902093043 80 0 0.0 2.0 0.00 0.00 0.00 70 1015.6
20260902092526 80 151 0.0 2.0 0.00 0.00 0.00 70 1015.6
20260902092025 81 0 0.0 2.0 0.00 0.00 0.00 69 1015.6
20260902091552 81 0 0.0 2.0 0.00 0.00 0.00 69 1015.6
20260902091025 81 0 0.0 2.0 0.00 0.00 0.00 69 1015.5
20260902090524 81 0 0.0 4.0 0.00 0.00 0.00 69 1015.5
20260902090044 81 162 0.0 4.0 0.00 0.00 0.00 69 1015.6
20260902085519 81 0 0.0 2.0 0.00 0.00 0.00 68 1015.5
20260902085027 81 202 0.0 2.0 0.00 0.00 0.00 68 1015.5
20260902084541 82 178 0.0 4.0 0.00 0.00 0.00 68 1015.4
20260902084026 82 0 1.0 4.0 0.00 0.00 0.00 68 1015.5
20260902083524 82 144 0.0 4.0 0.00 0.00 0.00 68 1015.6
20260902083049 82 167 0.0 4.0 0.00 0.00 0.00 67 1015.5
20260902082527 82 169 0.0 6.0 0.00 0.00 0.00 67 1015.5
20260902082024 82 150 1.0 6.0 0.00 0.00 0.00 67 1015.5
20260902081545 82 172 1.0 6.0 0.00 0.00 0.00 67 1015.5
20260902081023 82 217 1.0 8.0 0.00 0.00 0.00 67 1015.5
20260902080522 82 205 1.0 8.0 0.00 0.00 0.00 67 1015.5
20260902080052 82 165 1.0 5.0 0.00 0.00 0.00 67 1015.5
20260902075526 82 148 1.0 6.0 0.00 0.00 0.00 67 1015.6
20260902075024 82 163 1.0 6.0 0.00 0.00 0.00 67 1015.6
20260902074547 82 169 1.0 4.0 0.00 0.00 0.00 67 1015.6
20260902074024 82 178 1.0 6.0 0.00 0.00 0.00 67 1015.6
20260902073525 83 0 0.0 6.0 0.00 0.00 0.00 67 1015.6
20260902073045 83 168 1.0 5.0 0.00 0.00 0.00 67 1015.6
20260902072524 83 153 1.0 5.0 0.00 0.00 0.00 67 1015.7
20260902072030 83 0 0.0 6.0 0.00 0.00 0.00 66 1015.6
20260902071543 83 203 1.0 6.0 0.00 0.00 0.00 66 1015.6
20260902071025 83 146 2.0 6.0 0.00 0.00 0.00 66 1015.6
20260902070524 83 0 1.0 6.0 0.00 0.00 0.00 66 1015.6
20260902070042 83 221 1.0 7.0 0.00 0.00 0.00 65 1015.6
20260902065521 84 171 2.0 7.0 0.00 0.00 0.00 65 1015.6
20260902065024 84 123 1.0 8.0 0.00 0.00 0.00 65 1015.5
20260902064551 84 138 2.0 8.0 0.00 0.00 0.00 65 1015.5
20260902064024 84 226 1.0 6.0 0.00 0.00 0.00 65 1015.5
20260902063524 84 186 1.0 7.0 0.00 0.00 0.00 65 1015.4
20260902063046 84 159 1.0 8.0 0.00 0.00 0.00 64 1015.4
20260902062528 84 142 2.0 8.0 0.00 0.00 0.00 64 1015.4
20260902062021 84 157 1.0 9.0 0.00 0.00 0.00 64 1015.4
20260902061553 85 188 2.0 9.0 0.00 0.00 0.00 63 1015.4
20260902061023 85 194 2.0 9.0 0.00 0.00 0.00 63 1015.4
20260902060525 85 169 1.0 10.0 0.00 0.00 0.00 63 1015.4
20260902060046 85 178 2.0 10.0 0.00 0.00 0.00 63 1015.4
20260902055524 85 153 1.0 7.0 0.00 0.00 0.00 62 1015.4
20260902055025 85 151 2.0 12.0 0.00 0.00 0.00 62 1015.5
20260902054545 85 291 2.0 12.0 0.00 0.00 0.00 62 1015.5
20260902054024 86 204 2.0 9.0 0.00 0.00 0.00 62 1015.4
20260902053523 86 197 3.0 9.0 0.00 0.00 0.00 61 1015.3
20260902053039 86 172 2.0 9.0 0.00 0.00 0.00 61 1015.4
20260902052522 86 173 2.0 10.0 0.00 0.00 0.00 61 1015.4
20260902052024 86 188 3.0 10.0 0.00 0.00 0.00 60 1015.4
20260902051543 86 194 2.0 7.0 0.00 0.00 0.00 60 1015.3
20260902051024 87 138 1.0 4.0 0.00 0.00 0.00 60 1015.3
20260902050524 87 165 1.0 5.0 0.00 0.00 0.00 59 1015.3
20260902050046 87 152 2.0 8.0 0.00 0.00 0.00 59 1015.4
20260902045523 87 0 2.0 8.0 0.00 0.00 0.00 59 1015.3
20260902045027 87 175 1.0 10.0 0.00 0.00 0.00 58 1015.3
20260902044543 87 171 3.0 10.0 0.00 0.00 0.00 58 1015.3
20260902044025 87 0 2.0 9.0 0.00 0.00 0.00 58 1015.3
20260902043522 87 159 2.0 10.0 0.00 0.00 0.00 57 1015.4
20260902043041 88 243 3.0 10.0 0.00 0.00 0.00 57 1015.4
20260902042526 88 196 2.0 7.0 0.00 0.00 0.00 56 1015.3
20260902042024 88 154 2.0 8.0 0.00 0.00 0.00 55 1015.3
20260902041547 88 162 2.0 8.0 0.00 0.00 0.00 54 1015.3
20260902041025 89 185 2.0 8.0 0.00 0.00 0.00 53 1015.1
20260902040525 89 188 2.0 9.0 0.00 0.00 0.00 53 1015.1
20260902040045 89 152 3.0 9.0 0.00 0.00 0.00 53 1015.0
20260902035521 89 165 1.0 5.0 0.00 0.00 0.00 54 1015.0
20260902035024 89 172 0.0 5.0 0.00 0.00 0.00 53 1015.0
20260902034555 89 152 1.0 5.0 0.00 0.00 0.00 54 1014.9
20260902034028 89 0 0.0 3.0 0.00 0.00 0.00 53 1015.0
20260902033521 89 157 0.0 3.0 0.00 0.00 0.00 53 1015.0
20260902033054 89 167 0.0 3.0 0.00 0.00 0.00 52 1015.1
20260902032525 89 0 0.0 4.0 0.00 0.00 0.00 52 1015.1
20260902032030 90 0 1.0 4.0 0.00 0.00 0.00 52 1014.9
20260902031551 90 166 1.0 3.0 0.00 0.00 0.00 51 1015.0
20260902031024 90 137 0.0 5.0 0.00 0.00 0.00 51 1014.9
20260902030523 90 146 1.0 5.0 0.00 0.00 0.00 51 1014.8
20260902030044 90 132 1.0 4.0 0.00 0.00 0.00 50 1014.7
20260902025527 90 161 1.0 4.0 0.00 0.00 0.00 50 1014.6
20260902025022 90 159 0.0 3.0 0.00 0.00 0.00 50 1014.5
20260902024548 90 165 1.0 3.0 0.00 0.00 0.00 50 1014.4
20260902024025 90 0 0.0 3.0 0.00 0.00 0.00 50 1014.4
20260902023523 90 0 0.0 3.0 0.00 0.00 0.00 49 1014.4
20260902023047 91 0 1.0 6.0 0.00 0.00 0.00 49 1014.3
20260902022524 91 180 0.0 6.0 0.00 0.00 0.00 49 1014.2
20260902022024 91 155 0.0 5.0 0.00 0.00 0.00 49 1014.2
20260902021544 91 167 0.0 3.0 0.00 0.00 0.00 48 1014.1
20260902021024 91 132 0.0 3.0 0.00 0.00 0.00 48 1014.1
20260902020520 91 167 0.0 5.0 0.00 0.00 0.00 48 1014.0
20260902020042 91 184 1.0 7.0 0.00 0.00 0.00 47 1013.9
20260902015523 91 148 2.0 7.0 0.00 0.00 0.00 48 1013.8
20260902015024 91 154 1.0 3.0 0.00 0.00 0.00 48 1013.7
20260902014546 91 92 0.0 3.0 0.00 0.00 0.00 48 1013.7
20260902014024 91 0 0.0 3.0 0.00 0.00 0.00 48 1013.6
20260902013523 91 0 0.0 1.0 0.00 0.00 0.00 47 1013.5
20260902013044 91 0 0.0 1.0 0.00 0.00 0.00 47 1013.5
20260902012524 92 153 0.0 1.0 0.00 0.00 0.00 47 1013.5
20260902012025 92 0 0.0 3.0 0.00 0.00 0.00 47 1013.4
20260902011544 92 0 0.0 3.0 0.00 0.00 0.00 47 1013.3
20260902011022 92 140 0.0 1.0 0.00 0.00 0.00 47 1013.3
20260902010523 92 0 0.0 2.0 0.00 0.00 0.00 46 1013.3
20260902010041 93 0 0.0 2.0 0.00 0.00 0.00 46 1013.3
20260902005524 93 0 0.0 2.0 0.00 0.00 0.00 45 1013.3
20260902005024 93 0 0.0 5.0 0.00 0.00 0.00 45 1013.2
20260902004547 94 154 0.0 5.0 0.00 0.00 0.00 44 1013.2
20260902004024 94 192 0.0 2.0 0.00 0.00 0.00 43 1013.3
20260902003526 94 153 0.0 7.0 0.00 0.00 0.00 44 1013.3
20260902003046 94 145 2.0 7.0 0.00 0.00 0.00 43 1013.3
20260902002521 94 85 1.0 6.0 0.00 0.00 0.00 43 1013.4
20260902002022 95 99 1.0 11.0 0.00 0.00 0.00 43 1013.4
20260902001542 95 192 3.0 11.0 0.00 0.00 0.00 42 1013.5
20260902001024 95 161 1.0 6.0 0.00 0.00 0.00 42 1013.6
20260902000525 95 159 2.0 5.0 0.00 0.00 0.00 42 1013.5
20260902000045 95 0 0.0 3.0 0.00 0.00 0.00 43 1013.5
20260901235525 95 209 1.0 3.0 0.00 0.00 0.00 42 1013.5
20260901235024 95 115 0.0 5.0 0.00 0.00 0.00 42 1013.6
20260901234553 95 171 0.0 6.0 0.00 0.00 0.00 42 1013.6
20260901234027 95 185 2.0 8.0 0.00 0.00 0.00 42 1013.6
20260901233520 95 175 1.0 9.0 0.00 0.00 0.00 42 1013.6
20260901233045 96 153 2.0 9.0 0.00 0.00 0.00 41 1013.7
20260901232524 96 194 2.0 6.0 0.00 0.00 0.00 41 1013.7
20260901232026 96 163 2.0 8.0 0.00 0.00 0.00 40 1013.8
20260901231541 97 189 1.0 10.0 0.00 0.00 0.00 40 1013.8
20260901231024 97 175 3.0 10.0 0.00 0.00 0.00 40 1013.8
20260901230527 97 172 2.0 10.0 0.00 0.00 0.00 40 1013.8
20260901230046 97 173 3.0 10.0 0.00 0.00 0.00 40 1013.7
20260901225525 98 80 2.0 6.0 0.00 0.00 0.00 39 1013.7
20260901225025 98 192 2.0 6.0 0.00 0.00 0.00 38 1013.7
20260901224551 99 191 2.0 5.0 0.00 0.00 0.00 37 1013.7
20260901224021 99 152 1.0 4.0 0.00 0.00 0.00 37 1013.7
20260901223521 98 198 1.0 7.0 0.00 0.00 0.00 38 1013.7
20260901223045 98 186 2.0 7.0 0.00 0.00 0.00 38 1013.7
20260901222527 97 167 1.0 7.0 0.00 0.00 0.00 39 1013.7
20260901222025 97 165 2.0 6.0 0.00 0.00 0.00 39 1013.8
20260901221546 97 183 1.0 8.0 0.00 0.00 0.00 38 1013.8
20260901221024 98 202 2.0 11.0 0.00 0.00 0.00 38 1013.7
20260901220526 99 113 2.0 11.0 0.00 0.00 0.00 37 1013.7
20260901220042 99 109 4.0 11.0 0.00 0.00 0.00 38 1013.8
20260901215521 98 159 4.0 10.0 0.00 0.00 0.00 38 1013.9
20260901215020 98 116 4.0 10.0 0.00 0.00 0.00 38 1014.0
20260901214545 98 0 1.0 6.0 0.00 0.00 0.00 40 1014.0
20260901214024 97 161 2.0 6.0 0.00 0.00 0.00 39 1014.0
20260901213524 97 161 0.0 9.0 0.00 0.00 0.00 40 1014.1
20260901213046 97 0 2.0 9.0 0.00 0.00 0.00 40 1014.2
20260901212524 98 153 1.0 7.0 0.00 0.00 0.00 39 1014.2
20260901212025 99 156 1.0 9.0 0.00 0.00 0.00 37 1014.2
20260901211542 99 198 3.0 9.0 0.00 0.00 0.00 38 1014.4
20260901211023 98 76 2.0 10.0 0.00 0.00 0.00 39 1014.5
20260901210524 99 76 3.0 10.0 0.00 0.00 0.00 37 1014.5
20260901210047 100 187 5.0 10.0 0.00 0.00 0.00 37 1014.4
20260901205523 99 104 1.0 4.0 0.00 0.00 0.00 39 1014.5
20260901205026 98 275 0.0 6.0 0.00 0.00 0.00 39 1014.6
20260901204544 99 148 1.0 11.0 0.00 0.00 0.00 37 1014.6
20260901204030 100 68 5.0 13.0 0.00 0.00 0.00 37 1014.6
20260901203524 100 93 3.0 13.0 0.00 0.00 0.00 36 1014.6
20260901203048 100 100 3.0 13.0 0.00 0.00 0.00 37 1014.7
20260901202523 99 57 1.0 7.0 0.00 0.00 0.00 37 1014.8
20260901202026 99 70 1.0 10.0 0.00 0.00 0.00 37 1014.8
20260901201540 98 155 4.0 10.0 0.00 0.00 0.00 38 1014.9
20260901201025 97 98 1.0 9.0 0.00 0.00 0.00 41 1015.0
20260901200526 98 0 1.0 10.0 0.00 0.00 0.00 39 1015.0
20260901195524 97 147 1.0 7.0 0.00 0.00 0.00 41 1015.1
20260901195029 97 113 3.0 9.0 0.00 0.00 0.00 41 1015.2
20260901194556 98 147 3.0 9.0 0.00 0.00 0.00 39 1015.2
20260901194023 98 126 1.0 9.0 0.00 0.00 0.00 39 1015.2
20260901193524 97 79 3.0 10.0 0.00 0.00 0.00 41 1015.3
20260901193052 98 124 2.0 10.0 0.00 0.00 0.00 39 1015.5
20260901192524 99 142 3.0 10.0 0.00 0.00 0.00 38 1015.4
20260901192025 100 184 3.0 9.0 0.00 0.00 0.00 39 1015.5
20260901191545 99 136 4.0 9.0 0.00 0.00 0.00 38 1015.6
20260901191024 97 0 0.0 8.0 0.00 0.00 0.00 40 1015.6
20260901190524 98 70 1.0 8.0 0.00 0.00 0.00 39 1015.9
20260901190051 98 90 3.0 8.0 0.00 0.00 0.00 39 1015.9
20260901185526 98 71 2.0 8.0 0.00 0.00 0.00 40 1016.0
20260901185024 96 136 2.0 7.0 0.00 0.00 0.00 42 1016.2
20260901184551 97 212 1.0 7.0 0.00 0.00 0.00 43 1016.2
20260901184025 96 190 2.0 7.0 0.00 0.00 0.00 43 1016.3
20260901183525 96 197 1.0 7.0 0.00 0.00 0.00 44 1016.4
20260901183045 97 184 1.0 4.0 0.00 0.00 0.00 43 1016.4
20260901182524 96 190 1.0 7.0 0.00 0.00 0.00 43 1016.5
20260901182025 98 138 3.0 12.0 0.00 0.00 0.00 41 1016.6
20260901181549 97 16 3.0 12.0 0.00 0.00 0.00 42 1016.5
20260901181024 96 150 2.0 7.0 0.00 0.00 0.00 43 1016.6
20260901180524 94 0 0.0 5.0 0.00 0.00 0.00 47 1016.7
20260901180043 94 0 1.0 8.0 0.00 0.00 0.00 45 1016.8
20260901175527 95 165 2.0 8.0 0.00 0.00 0.00 46 1016.9
20260901175024 93 158 2.0 7.0 0.00 0.00 0.00 49 1017.0
20260901174547 92 0 1.0 4.0 0.00 0.00 0.00 49 1017.1
20260901174026 92 200 0.0 4.0 0.00 0.00 0.00 48 1017.1
20260901173524 93 0 0.0 3.0 0.00 0.00 0.00 48 1017.1
20260901173047 93 0 0.0 3.0 0.00 0.00 0.00 49 1017.1
20260901172524 94 225 0.0 3.0 0.00 0.00 0.00 48 1017.3
20260901172025 95 140 0.0 8.0 0.00 0.00 0.00 44 1017.3
20260901171556 97 192 2.0 8.0 0.00 0.00 0.00 44 1017.3
20260901171022 96 159 1.0 8.0 0.00 0.00 0.00 45 1017.4
20260901170523 96 33 1.0 8.0 0.00 0.00 0.00 45 1017.6
20260901170050 95 79 1.0 7.0 0.00 0.00 0.00 46 1017.7
20260901165525 94 0 0.0 2.0 0.00 0.00 0.00 48 1017.7
20260901165027 92 0 0.0 2.0 0.00 0.00 0.00 50 1017.8